Regional Weather Roundup
Issued by NWS Portland, ME

Home | Current Version | Previous Version | Text Only | Print | Product List | Glossary On
Versions: 1 2 3 4 5 6 7 8 9 10 11 12 13 14 15 16 17 18 19 20 21 22 23 24 25 26 27 28 29 30 31 32 33 34 35 36 37 38 39 40 41 42 43 44 45 46 47 48 49 50
000
ASUS41 KGYX 200810
RWRGYX
WEATHER ROUNDUP FOR MAINE AND NEW HAMPSHIRE
NATIONAL WEATHER SERVICE GRAY ME
300 AM EST FRI JAN 20 2017

MEZ002-005-006-010-012-015-018-020-021-024-026-027-029-200900-
MAINE

CITY           SKY/WX    TMP DP  RH WIND       PRES   REMARKS
PORTLAND       CLEAR     31  25  78 CALM      29.99S
SANFORD        CLOUDY    32  30  92 CALM      30.00R
BAR HARBOR     CLOUDY    32  27  81 N3        29.96F
WISCASSET      CLEAR     25  22  88 CALM      30.00S
ROCKLAND       CLEAR     34  24  67 VRB5      29.97S
FRYEBURG       CLEAR     21  20  96 W3        29.98S
LEWISTONAUBURN CLOUDY    35  27  72 N6        29.98F
AUGUSTA        CLEAR     28  24  85 NW3       29.98S
WATERVILLE     CLOUDY    33  25  72 N7        29.95S
BANGOR         CLOUDY    32  27  81 NW6       29.96F
GREENVILLE       N/A     29  26  89 VRB5      29.88F
MILLINOCKET    CLOUDY    32  27  81 NW6       29.96F
HOULTON        CLOUDY    28  27  96 NW3       29.93S
PRESQUE ISLE   PTCLDY    25  24  96 NW6       29.94F
FRENCHVILLE    CLOUDY    26  22  84 N6        29.90F
CARIBOU        CLEAR     27  24  89 NW8       29.92F
$$

NHZ002-005-008-009-011-012-014-200900-
NEW HAMPSHIRE

CITY           SKY/WX    TMP DP  RH WIND       PRES   REMARKS
PORTSMOUTH     CLOUDY    33  30  87 W5        30.00R
ROCHESTER      CLOUDY    32  26  78 NW5       29.99R
NASHUA         PTCLDY    27  27 100 NW6       30.02R
MANCHESTER     CLOUDY    28  25  88 CALM      29.99R
CONCORD        CLEAR     23  21  92 CALM      30.00S FOG
LACONIA        CLOUDY    20  17  88 CALM      30.00R FOG
PLYMOUTH       FAIR      26  25  98 CALM      29.99S FOG
BERLIN         CLOUDY    31  26  82 CALM      29.94F
WHITEFIELD     CLOUDY    32  25  75 NW6       29.95F
JAFFREY        CLOUDY    32  27  81 VRB3      29.99R
KEENE          CLOUDY    31  30  96 CALM      30.02R
LEBANON        CLOUDY    33  31  92 W3        30.00R
MT WASHINGTON  MOCLDY    32  -4  21 N31         N/A  WCI  17
$$

VTZ005-007-008-200900-
VERMONT

CITY           SKY/WX    TMP DP  RH WIND       PRES   REMARKS
ST JOHNSBURY     N/A     32  32 100 MISG      29.96F
MONTPELIER     CLOUDY    31  28  89 N3        30.00F
BURLINGTON     CLOUDY    35  30  82 SW3       30.00R
$$

MAZ007-012-024-CTZ003-RIZ002-NYZ038-NYZ072-200900-
SOUTHERN NEW ENGLAND AND NY

CITY           SKY/WX    TMP DP  RH WIND       PRES   REMARKS
BOSTON         MOCLDY    35  29  78 N7        30.00F
WORCESTER      CLOUDY    29  26  89 NW5       29.99R
NANTUCKET      CLOUDY    39  34  82 NW6       29.98F
PROVIDENCE     PTCLDY    36  28  73 NW5       30.02R
HARTFORD       CLOUDY    35  31  85 CALM      30.03R
ALBANY         CLOUDY    34  32  92 CALM      30.03R
NEW YORK CITY  CLOUDY    42  32  67 NE6       30.03S
$$

ANZ081-ANZ082-ANZ150-NHZ014-MEZ023>029-200900-
COASTAL MARINE OBSERVATIONS

STATION/POSITION TIME  TEMP    WIND        PRES    WAVE
                       AIR SEA DIR/SP/G            HT/PER
                 (UTC) (F)     (DEG/KT/KT) (MB)    (FT/S)
MOUNT DESERT ROC 0800   37                 1013.9F
MATINICUS ROCK   0700   37     350/ 19/ 21 1014.1F
ISLE OF SHOALS   0700   39      30/ 11/ 13 1015.0S
CASHES LEDGE BUO 0650   40 46  330/ 16/ 21 1014.8    7/11
GEORGES BANK BUO 0650   43 44              1013.0    8/11
$$

.............KEY..............
   WCI - WIND CHILL
   TC  - TEMPERATURE IN CELSIUS
   VSB - VISIBILITY IN MILES
   HX  - HEAT INDEX
   FAIR- INDICATES FEW OR NO CLOUDS BELOW 12,000 FT, WITH NO
         SIGNIFICANT WEATHER AND/OR OBSTRUCTIONS TO VISIBILITY.





USA.gov is the U.S. government's official web portal to all federal, state and local government web resources and services.